Location: Colossi of Memnon
(25.7167°N, 32.6167°E)
Time: 13:10:01
(UTC+00:00)

N. Korean satellite - Pass Details

Date: 28 September 2021
Orbit: 450 x 495 km, 97.3° (Epoch: 19 October)

Event Time Altitude Azimuth Distance (km) Brightness Sun altitude
Rises 02:11:59 0° 32° (NNE) 2,545 10.8 -20.7°
Reaches altitude 10° 02:14:32 10° 52° (NE) 1,670 10.1 -20.2°
Maximum altitude 02:17:04 18° 97° (E) 1,248 9.6 -19.6°
Drops below altitude 10° 02:19:37 10° 142° (SE) 1,677 9.7 -19.0°
Sets 02:22:11 0° 161° (SSE) 2,560 10.4 -18.4°
